Other Surface Observations
Issued by NWS

Home | Current Version | Previous Version | Text Only | Print | Product List | Glossary On
Versions: 1 2 3 4 5 6 7 8 9 10 11 12 13 14 15 16 17 18 19 20 21 22 23 24 25 26 27 28 29 30 31 32 33 34 35 36 37 38 39 40 41 42 43 44 45 46 47 48 49 50
000
SXUS52 KTAE 250318
OSOTAE
OSOTAE
North Florida/South Alabama/Southwest Georgia Weather Roundup
National Weather Service Tallahassee Florida
1000 PM EST FRI FEB 24 2017

Note: "fair" indicates few or no clouds below 12,000 feet with no
significant weather and/or obstructions to visibility.

!FLZ017-115-028-034-025-250400
...North Florida...

CITY           SKY/WX    TMP DP  RH WIND       PRES   REMARKS
TALLAHASSEE    CLEAR     66  60  81 CALM      29.85R
APALACHICOLA   CLOUDY    68  68 100 W6        29.86S
PERRY          CLEAR     66  63  89 CALM      29.86S
CROSS CITY     PTCLDY    64  63  94 CALM      29.86S
JACKSONVILLE   CLEAR     63  63 100 SE6       29.86S
$$

!FLZ112-006-005-002-011-250400
...Florida Panhandle...

CITY           SKY/WX    TMP DP  RH WIND       PRES   REMARKS
MARIANNA       PTCLDY    66  60  81 S7        29.85R
BONIFAY        FAIR      64  62  93 S3        29.85S
PANAMA CITY NW FAIR      61  61 100 S5        29.85R
TYNDALL AFB    CLEAR     66  64  95 SW6       29.87R
TYND DRONE APT FAIR      66  66  99 SW3       29.87R
DE FUNIAK SPR  CLOUDY    63  63 100 CALM      29.85F FOG
EGLIN AFB      PTCLDY    67  66  95 S6        29.84F
DESTIN         CLEAR     71  71 100 S6        29.83F
HURLBURT       CLEAR     67  59  74 S8        29.82F
CRESTVIEW      CLOUDY    65  64  97 S5        29.85S
PENSACOLA      CLEAR     67  65  93 S7        29.83S
$$

!ALZ063-066-250400
...South Alabama...

CITY           SKY/WX    TMP DP  RH WIND       PRES   REMARKS
DOTHAN         CLEAR     66  59  78 SW9       29.86R
OZARK CAIRNS   CLEAR     65  60  84 SW8       29.83R
FT RUCKER HELI CLEAR     66  59  79 S9        29.82S
RUCKER HELI 3  FAIR      65  59  79 E6        29.82S
RUCKER HELI 2  FAIR      66  59  76 SW6       29.82S
FLORALA APT    PTCLDY    64  61  90 SW8       29.85S
ANDALUSIA      CLEAR     67  61  81 SW5       29.82S
TROY           CLEAR     67  59  75 S8        29.82R
EUFALA         FAIR      64  56  75 S5        29.80S
MOBILE         PTCLDY    66  64  93 S7        29.83S
$$

!GAZ120>161-250400
...Southwest and South Central Georgia...

CITY           SKY/WX    TMP DP  RH WIND       PRES   REMARKS
THOMASVILLE    FAIR      66  63  88 W3        29.85R
BAINBRIDGE     CLEAR     72  61  68 SW7       29.85R
MOODY AFB      PTCLDY    70  61  73 SE10      29.84R
VALDOSTA       PTCLDY    69  60  73 S3        29.84R
MOULTRIE       CLEAR     68  61  77 SW3       29.85R
BLAKELY        PTCLDY    68  59  73 CALM      29.84S
ALBANY         CLEAR     64  59  83 CALM      29.84S
TIFTON         FAIR      62  61  97 CALM      29.83S
FITZGERALD     FAIR      61  60  97 CALM      29.86S
CORDELE        FAIR      65  59  79 CALM      29.83S
AMERICUS       FAIR      64  54  68 CALM      29.84S
HOMERVILLE     MOCLDY    70  64  83 SE8       29.86R
$$

!GMZ750-755-770-775-250400
...Coastal and Buoy Obs...

STATION/POSITION TIME  TEMP    WIND        PRES    VSBY  WAVE
                       AIR SEA DIR/SP/G                  HT/PER
                 (UTC) (F)     (DEG/KT/KT) (MB)    (MI)  (FT/S)
KEATON BEACH     0300   68     260/  9/ 11 1010.7S
CEDAR KEY        0300   65     290/  2/  3 1011.8R
C TOWER          0300   67     250/  7/  7 1011.9R
APALACHICOLA BUO 0250   69 70  270/  6/  8 1011.5S         1/ 4
PANAMA CITY BUOY 0250   71 71              1011.8R         1/ 4
MOBILE BUOY      NOT AVBL
ORANGE BCH AL BU 0250   70 69  170/ 10/ 12 1009.9F         1/ 3
$$




USA.gov is the U.S. government's official web portal to all federal, state and local government web resources and services.